Raton, NM

2:35 PM MST on February 11, 2016 (GMT -0700)
Raton Municipal-Crews

Weather History for KRTN - September, 2013

Change the Weather History Date:

Sunday, September 29, 2013

  Actual Average (KTAD) Record (KTAD)
Temperature  
Mean Temperature 56 °F 59 °F  
Max Temperature 79 °F 74 °F 91 °F (1977)
Min Temperature 33 °F 43 °F 23 °F (1984)
Degree Days  
Heating Degree Days 10 7  
Month to date heating degree days 94  
Since 1 July heating degree days 104  
Cooling Degree Days 0 1  
Month to date cooling degree days 75  
Year to date cooling degree days 717  
Growing Degree Days 6 (Base 50)    
Moisture  
Dew Point 26 °F    
Average Humidity 43    
Maximum Humidity 85    
Minimum Humidity 9    
Precipitation  
Precipitation 0.00 in 0.03 in 0.52 in (1990)
Month to date precipitation 1.21  
Year to date precipitation 11.67  
Sea Level Pressure  
Sea Level Pressure 29.98 in    
Wind  
Wind Speed 6 mph (NNE)    
Max Wind Speed 16 mph    
Max Gust Speed 24 mph    
Visibility 10 miles    
Events      
T = Trace of Precipitation, MM = Missing Value Source: NWS Daily Summary

Daily Weather History Graph

Daily Weather History Graph

Search for Another Location

Airport or City:

Trip Planner

Search our weather history database for the weather conditions in past years. The results will help you decide how hot, cold, wet, or windy it might be!

Date:

Astronomy

Sep. 29, 2013 Rise Set
Actual Time 6:51 AM MDT 6:43 PM MDT
Civil Twilight 6:26 AM MDT 7:09 PM MDT
Nautical Twilight 5:56 AM MDT 7:39 PM MDT
Astronomical Twilight 5:25 AM MDT 8:09 PM MDT
Moon 1:42 AM MDT (9/29) 3:35 PM MDT (9/29)
Length of Visible Light 12h 43m
Length of Day
11h 52m
Waning Crescent, 26% of the Moon is Illuminated
Sep 29
Waning Crescent
Oct 4
New
Oct 11
First Quarter
Oct 18
Full
Oct 26
Last Quarter

Hourly Weather History & Observations

Time (MDT) Temp. Windchill Dew Point Humidity Pressure Visibility Wind Dir Wind Speed Gust Speed Precip Events Conditions
12:53 AM 39.0 °F 36.8 °F 30.9 °F 73% 30.14 in 10.0 mi NNE 3.5 mph - N/A   Clear
1:53 AM 37.0 °F 32.4 °F 30.9 °F 79% 30.13 in 10.0 mi North 5.8 mph - N/A   Clear
2:53 AM 35.1 °F 30.1 °F 30.9 °F 85% 30.12 in 10.0 mi ENE 5.8 mph - N/A   Clear
3:53 AM 36.0 °F 32.1 °F 30.0 °F 79% 30.09 in 10.0 mi NE 4.6 mph - N/A   Clear
4:53 AM 34.0 °F 28.8 °F 30.0 °F 85% 30.10 in 10.0 mi ENE 5.8 mph - N/A   Clear
5:53 AM 34.0 °F 28.0 °F 28.9 °F 82% 30.11 in 10.0 mi ENE 6.9 mph - N/A   Clear
6:53 AM 33.1 °F 26.9 °F 28.9 °F 85% 30.13 in 10.0 mi NNE 6.9 mph - N/A   Clear
7:53 AM 37.0 °F 32.4 °F 30.0 °F 76% 30.12 in 10.0 mi ENE 5.8 mph - N/A   Clear
8:53 AM 45.0 °F 43.5 °F 33.1 °F 63% 30.10 in 10.0 mi NE 3.5 mph - N/A   Clear
9:53 AM 54.0 °F - 30.9 °F 41% 30.07 in 10.0 mi Variable 3.5 mph - N/A   Clear
10:53 AM 61.0 °F - 28.0 °F 29% 30.02 in 10.0 mi Variable 3.5 mph - N/A   Clear
11:53 AM 66.9 °F - 28.9 °F 24% 29.98 in 10.0 mi SSW 6.9 mph - N/A   Clear
12:53 PM 72.0 °F - 27.0 °F 19% 29.93 in 10.0 mi South 10.4 mph - N/A   Clear
1:53 PM 75.9 °F - 19.9 °F 12% 29.88 in 10.0 mi Variable 5.8 mph - N/A   Clear
2:53 PM 78.1 °F - 14.0 °F 9% 29.85 in 10.0 mi SSW 5.8 mph - N/A   Clear
3:53 PM 78.1 °F - 15.1 °F 9% 29.83 in 10.0 mi West 13.8 mph - N/A   Clear
4:53 PM 78.1 °F - 17.1 °F 10% 29.83 in 10.0 mi West 12.7 mph - N/A   Clear
5:53 PM 75.0 °F - 19.0 °F 12% 29.85 in 10.0 mi West 12.7 mph 21.9 mph N/A   Clear
6:53 PM 69.1 °F - 21.0 °F 16% 29.88 in 10.0 mi WNW 15.0 mph 20.7 mph N/A   Clear
7:53 PM 66.9 °F - 19.9 °F 17% 29.89 in 10.0 mi WNW 16.1 mph 24.2 mph N/A   Clear
8:53 PM 64.9 °F - 19.0 °F 17% 29.89 in 10.0 mi NNE 8.1 mph 19.6 mph N/A   Clear
9:53 PM 59.0 °F - 24.1 °F 26% 29.90 in 10.0 mi NNE 6.9 mph - N/A   Clear
10:53 PM 55.9 °F - 25.0 °F 30% 29.87 in 10.0 mi ESE 5.8 mph - N/A   Clear
11:53 PM 48.9 °F - 30.0 °F 48% 29.87 in 10.0 mi ENE 6.9 mph - N/A   Clear